FW5399 Weather Reports


Display with metric or nautical units.
time (UTC)temp
F
wind
direction
speed
MPH
gust
MPH
rain 1hr
in
rain 24hr
in
rain mn
in
humidity
%
barometer
mb
20260507081811 55 127 0.0 0.0 0.00 0.04 0.04 97 1023.3
20260507081312 55 127 0.0 0.0 0.00 0.04 0.04 98 1023.5
20260507080815 56 127 0.0 0.0 0.00 0.04 0.04 98 1023.6
20260507080328 56 127 0.0 0.0 0.00 0.04 0.04 98 1023.7
20260507075814 56 127 0.0 0.0 0.00 0.04 0.04 98 1023.7
20260507075451 56 127 0.0 0.0 0.00 0.04 0.04 98 1023.6
20260507075402 56 127 0.0 0.0 0.00 0.04 0.04 98 1023.5
20260507073810 56 126 0.0 0.0 0.00 0.04 0.04 97 1023.5
20260507073311 56 126 0.0 0.0 0.00 0.04 0.04 97 1023.6
20260507072812 56 126 0.0 0.0 0.00 0.04 0.04 97 1023.5
20260507072312 56 126 0.0 0.0 0.00 0.04 0.04 97 1023.5
20260507071806 57 126 0.0 0.0 0.00 0.04 0.04 97 1023.5
20260507071308 57 126 0.0 0.0 0.00 0.04 0.04 97 1023.4
20260507070807 57 126 0.0 0.0 0.00 0.04 0.04 97 1023.4
20260507070309 58 126 0.0 0.0 0.00 0.04 0.04 97 1023.6
20260507070301 58 126 0.0 0.0 0.00 0.05 0.04 97 1023.6
20260507065306 58 126 0.0 0.0 0.00 0.05 0.04 97 1023.4
20260507064808 58 126 0.0 0.0 0.00 0.05 0.04 97 1023.5
20260507064307 58 126 0.0 0.0 0.00 0.05 0.04 97 1023.4
20260507063809 58 126 0.0 0.0 0.00 0.05 0.04 97 1023.4
20260507063307 58 126 0.0 0.0 0.00 0.05 0.04 97 1023.4
20260507062825 58 126 0.0 0.0 0.00 0.05 0.04 97 1023.4
20260507062313 58 126 0.0 0.0 0.00 0.05 0.04 96 1023.3
20260507061812 58 126 0.0 0.0 0.00 0.05 0.04 96 1023.3
20260507061313 58 126 0.0 0.0 0.00 0.05 0.04 96 1023.3
20260507060813 58 126 0.0 0.0 0.00 0.05 0.04 96 1023.3
20260507060304 58 126 0.0 0.0 0.00 0.05 0.04 95 1023.3
20260507055805 58 126 0.0 0.0 0.00 0.05 0.04 95 1023.3
20260507055704 58 126 0.0 0.0 0.00 0.05 0.04 94 1023.3
20260507054802 59 126 0.0 0.0 0.00 0.05 0.04 93 1023.3
20260507054726 59 126 0.0 0.0 0.00 0.05 0.04 93 1023.3
20260507054153 60 126 0.0 0.0 0.00 0.05 0.04 93 1023.4
20260507053650 60 126 0.0 0.0 0.00 0.05 0.04 92 1023.3
20260507052745 61 126 0.0 0.0 0.00 0.05 0.04 91 1023.4
20260507052239 61 126 0.0 0.0 0.00 0.05 0.04 91 1023.4
20260507051734 62 126 0.0 0.0 0.00 0.05 0.04 90 1023.3
20260507051643 62 126 0.0 0.0 0.00 0.05 0.04 89 1023.4
20260507051133 63 126 0.0 0.0 0.00 0.05 0.04 87 1023.3
20260507050215 63 126 0.0 0.0 0.00 0.05 0.04 86 1023.5
20260507050100 64 126 0.0 0.0 0.00 0.05 0.04 85 1023.5
20260507045202 64 126 0.0 4.0 0.00 0.05 0.04 84 1023.6
20260507044655 64 126 0.0 4.0 0.00 0.05 0.04 83 1023.5
20260507044149 64 145 0.0 3.0 0.00 0.06 0.04 83 1023.6
20260507043645 64 54 0.0 2.0 0.00 0.06 0.04 82 1023.7
20260507043137 64 190 0.0 3.0 0.00 0.06 0.04 82 1023.7
20260507042631 65 178 0.0 3.0 0.00 0.06 0.04 82 1023.8
20260507042125 65 284 0.0 2.0 0.00 0.06 0.04 81 1023.7
20260507041619 65 169 0.0 2.0 0.00 0.06 0.04 80 1023.7
20260507041246 65 191 0.0 3.0 0.00 0.06 0.04 80 1023.7
20260507035555 65 3 0.0 3.0 0.00 0.08 0.04 80 1023.9
20260507035049 65 181 1.0 4.0 0.00 0.08 0.04 80 1024.0
20260507034543 66 134 0.0 4.0 0.00 0.08 0.04 80 1024.1
20260507034037 66 13 0.0 2.0 0.00 0.08 0.04 79 1024.0
20260507033532 66 149 0.0 3.0 0.00 0.08 0.04 79 1024.0
20260507033025 66 24 1.0 6.0 0.00 0.08 0.04 79 1024.1
20260507032519 66 142 1.0 6.0 0.00 0.08 0.04 79 1024.1
20260507032012 66 142 1.0 4.0 0.00 0.08 0.04 78 1024.3
20260507031507 66 99 1.0 4.0 0.00 0.08 0.04 80 1024.3
20260507031002 67 14 1.0 4.0 0.00 0.08 0.04 79 1024.2
20260507030455 67 61 1.0 9.0 0.00 0.08 0.04 78 1024.3
20260507025950 67 28 1.0 9.0 0.00 0.08 0.04 78 1024.2
20260507025444 67 137 1.0 6.0 0.00 0.08 0.04 78 1024.2
20260507024937 67 154 1.0 5.0 0.00 0.08 0.04 78 1024.1
20260507024443 67 173 2.0 5.0 0.00 0.08 0.04 77 1024.1
20260507023937 67 146 1.0 5.0 0.00 0.08 0.04 76 1024.2
20260507023438 67 196 2.0 5.0 0.00 0.08 0.04 76 1024.2
20260507023332 67 142 2.0 5.0 0.00 0.08 0.04 75 1024.2
20260507022846 67 107 2.0 7.0 0.00 0.08 0.04 76 1024.3
20260507022350 67 36 2.0 9.0 0.00 0.08 0.04 76 1024.3
20260507021440 67 180 2.0 9.0 0.00 0.08 0.04 76 1024.3
20260507020931 67 118 2.0 7.0 0.00 0.08 0.04 76 1024.2
20260507020826 67 123 2.0 7.0 0.00 0.08 0.04 76 1024.3
20260507015926 67 196 2.0 7.0 0.00 0.08 0.04 77 1024.2
20260507015427 68 109 1.0 4.0 0.00 0.08 0.04 77 1024.4
20260507014925 67 149 2.0 8.0 0.00 0.08 0.04 78 1024.4
20260507014427 67 161 2.0 8.0 0.00 0.08 0.04 78 1024.5
20260507013926 67 134 2.0 7.0 0.00 0.08 0.04 78 1024.7
20260507013431 67 235 2.0 7.0 0.00 0.08 0.04 79 1024.7
20260507012931 67 217 3.0 7.0 0.00 0.08 0.04 78 1024.7
20260507012432 67 160 3.0 8.0 0.00 0.08 0.04 78 1024.6
20260507011932 68 132 3.0 8.0 0.00 0.08 0.04 78 1024.7
20260507011840 68 193 2.0 8.0 0.00 0.08 0.04 77 1024.8
20260507011146 68 130 2.0 8.0 0.00 0.08 0.04 77 1024.8
20260507010604 68 2 2.0 7.0 0.00 0.08 0.04 78 1024.9
20260507005412 68 129 2.0 9.0 0.00 0.08 0.04 78 1024.9
20260507004914 68 124 2.0 12.0 0.00 0.08 0.04 78 1024.8
20260507004413 68 176 2.0 12.0 0.00 0.08 0.04 78 1025.0
20260507004333 68 31 2.0 6.0 0.00 0.08 0.04 81 1024.9
20260507003409 67 165 2.0 6.0 0.00 0.08 0.04 81 1024.9
20260507003318 67 19 2.0 8.0 0.00 0.08 0.04 82 1024.9
20260507002412 67 102 3.0 8.0 0.00 0.08 0.04 81 1025.0
20260507001911 67 175 3.0 9.0 0.00 0.08 0.04 82 1025.0
20260507001410 67 211 3.0 9.0 0.00 0.08 0.04 83 1025.1
20260507001342 67 207 2.0 9.0 0.00 0.08 0.04 83 1025.1
20260507000814 67 50 2.0 9.0 0.00 0.08 0.04 83 1025.2
20260506235909 67 337 2.0 9.0 0.00 0.08 0.04 84 1025.3
20260506235410 67 310 2.0 7.0 0.00 0.08 0.04 84 1025.4
20260506234907 67 126 2.0 5.0 0.00 0.08 0.04 85 1025.4
20260506234407 67 196 2.0 8.0 0.00 0.08 0.04 85 1025.6
20260506233909 67 184 2.0 8.0 0.00 0.08 0.04 85 1025.8
20260506233407 67 310 2.0 7.0 0.00 0.08 0.04 86 1025.7
20260506232906 67 196 1.0 4.0 0.00 0.08 0.04 86 1026.0
20260506232402 66 170 1.0 5.0 0.00 0.09 0.04 86 1025.8
20260506231859 66 112 1.0 5.0 0.00 0.09 0.04 87 1026.0
20260506231357 66 200 2.0 10.0 0.00 0.09 0.04 88 1026.1
20260506230853 66 201 2.0 10.0 0.00 0.10 0.04 88 1026.2
20260506230356 66 163 1.0 4.0 0.00 0.11 0.04 89 1026.2
20260506225855 65 177 1.0 6.0 0.00 0.13 0.04 90 1026.3
20260506225353 65 187 1.0 6.0 0.00 0.13 0.04 90 1026.3
20260506224858 65 105 1.0 5.0 0.00 0.13 0.04 90 1026.4
20260506224358 65 127 0.0 1.0 0.00 0.13 0.04 93 1026.4
20260506223855 65 193 1.0 5.0 0.00 0.13 0.04 93 1026.5
20260506223729 65 193 1.0 5.0 0.00 0.13 0.04 94 1026.5
20260506222851 64 152 1.0 6.0 0.00 0.13 0.04 95 1026.5
20260506222349 64 175 1.0 6.0 0.00 0.13 0.04 95 1026.5
20260506222252 64 111 1.0 4.0 0.00 0.13 0.04 96 1026.5
20260506221347 64 274 1.0 5.0 0.00 0.13 0.04 96 1026.5
20260506220847 64 177 2.0 5.0 0.00 0.13 0.04 97 1026.7
20260506220345 64 159 2.0 6.0 0.00 0.13 0.04 99 1026.6
20260506215845 64 165 2.0 6.0 0.00 0.13 0.04 100 1026.7
20260506215352 64 198 2.0 5.0 0.00 0.13 0.04 100 1026.7
20260506214847 63 28 2.0 6.0 0.00 0.13 0.04 100 1026.9
20260506214339 62 164 1.0 6.0 0.00 0.13 0.04 100 1026.9
20260506214259 61 131 1.0 4.0 0.00 0.13 0.04 100 1026.7
20260506213328 61 173 0.0 3.0 0.00 0.13 0.04 100 1026.9
20260506212822 61 154 0.0 2.0 0.00 0.13 0.04 100 1026.9
20260506212317 61 190 0.0 0.0 0.00 0.13 0.04 100 1027.0
20260506212154 61 190 0.0 0.0 0.00 0.13 0.04 100 1027.0
20260506211303 61 190 0.0 0.0 0.00 0.13 0.04 100 1027.0
20260506210758 60 190 0.0 0.0 0.00 0.13 0.04 100 1027.0
20260506210251 60 189 0.0 0.0 0.00 0.13 0.04 100 1027.1
20260506205748 60 189 0.0 0.0 0.00 0.13 0.04 100 1027.1
20260506205625 60 189 0.0 0.0 0.00 0.13 0.04 100 1027.1
20260506204733 59 189 0.0 0.0 0.00 0.13 0.04 100 1027.1
20260506204228 59 189 0.0 0.0 0.00 0.13 0.04 100 1027.0
20260506203721 59 189 0.0 0.0 0.01 0.13 0.04 100 1027.0
20260506203216 59 189 0.0 0.0 0.01 0.13 0.04 100 1027.0
20260506202709 59 189 0.0 0.0 0.01 0.13 0.04 100 1027.0
20260506202203 58 189 0.0 0.0 0.01 0.13 0.04 100 1027.1
20260506202042 58 189 0.0 0.0 0.02 0.13 0.04 100 1027.1
20260506201151 58 189 0.0 0.0 0.02 0.13 0.04 100 1027.0
20260506200647 58 189 0.0 0.0 0.02 0.13 0.04 100 1027.0
20260506200139 58 189 0.0 0.0 0.02 0.13 0.04 100 1027.0
20260506195633 58 189 0.0 0.0 0.02 0.13 0.04 100 1027.0
20260506195127 57 189 0.0 0.0 0.02 0.13 0.04 100 1027.0
20260506194621 57 189 0.0 0.0 0.02 0.13 0.04 100 1026.9
20260506194522 57 189 0.0 0.0 0.02 0.13 0.04 100 1026.9
20260506193614 57 189 0.0 0.0 0.02 0.13 0.03 100 1027.0
20260506193104 57 189 0.0 0.0 0.02 0.13 0.03 100 1026.9
20260506192942 57 189 0.0 0.0 0.02 0.13 0.03 100 1027.0
20260506192440 57 189 0.0 0.0 0.02 0.13 0.03 100 1026.9
20260506191607 57 189 0.0 0.0 0.02 0.12 0.02 100 1026.9
20260506191102 57 189 0.0 0.0 0.02 0.12 0.02 100 1026.8
20260506190603 57 189 0.0 0.0 0.01 0.11 0.02 100 1026.9
20260506190057 57 189 0.0 0.0 0.01 0.11 0.02 100 1026.9
20260506185559 57 189 0.0 0.0 0.01 0.11 0.02 100 1026.9
20260506185056 56 189 0.0 0.0 0.01 0.11 0.02 100 1026.8
20260506184555 56 189 0.0 0.0 0.01 0.11 0.02 100 1026.8
20260506184053 56 189 0.0 0.0 0.01 0.11 0.02 100 1026.6
20260506183740 56 189 0.0 0.0 0.01 0.12 0.02 100 1026.7
20260506182556 56 189 0.0 0.0 0.00 0.11 0.01 100 1026.7
20260506182055 56 189 0.0 0.0 0.00 0.12 0.01 100 1026.7
20260506181553 56 189 0.0 0.0 0.00 0.12 0.01 100 1026.7
20260506181051 56 189 0.0 0.0 0.00 0.12 0.01 100 1026.8
20260506180600 56 189 0.0 0.0 0.00 0.12 0.01 100 1026.9
20260506180059 56 189 0.0 0.0 0.00 0.12 0.01 100 1026.8
20260506175547 56 189 0.0 0.0 0.00 0.12 0.01 100 1026.9
20260506175043 56 189 0.0 0.0 0.01 0.13 0.01 100 1026.9
20260506174543 56 189 0.0 0.0 0.01 0.13 0.01 100 1027.0
20260506174442 56 189 0.0 0.0 0.01 0.13 0.01 100 1026.9
20260506173548 56 189 0.0 0.0 0.01 0.14 0.01 100 1027.0
20260506173442 56 189 0.0 0.0 0.01 0.15 0.01 100 1026.9
20260506172940 56 189 0.0 0.0 0.01 0.15 0.01 100 1026.8
20260506172044 56 189 0.0 0.0 0.01 0.16 0.01 100 1027.0
20260506171543 56 189 0.0 0.0 0.01 0.16 0.01 100 1027.0
20260506171043 56 189 0.0 0.0 0.01 0.16 0.01 100 1026.9
20260506170912 56 189 0.0 0.0 0.01 0.16 0.01 100 1027.0
20260506170043 56 189 0.0 0.0 0.01 0.17 0.01 100 1027.0
20260506165542 56 189 0.0 0.0 0.01 0.17 0.01 100 1027.0
20260506165220 56 189 0.0 0.0 0.00 0.18 0.00 100 1027.0
20260506164442 55 189 0.0 0.0 0.00 0.18 0.00 100 1027.0
20260506163538 55 189 0.0 0.0 0.00 0.18 0.00 100 1026.9
20260506163042 55 189 0.0 0.0 0.00 0.18 0.00 100 1026.9
20260506162539 56 189 0.0 0.0 0.00 0.18 0.00 100 1026.9
20260506162451 56 189 0.0 0.0 0.00 0.18 0.00 100 1027.0
20260506161525 56 189 0.0 0.0 0.00 0.18 0.00 100 1027.1
20260506161035 56 189 0.0 0.0 0.00 0.18 0.00 100 1027.0
20260506160946 56 189 0.0 0.0 0.00 0.18 0.00 100 1027.2
20260506160402 56 189 0.0 0.0 0.00 0.18 0.00 100 1027.2
20260506155503 57 189 0.0 0.0 0.00 0.18 0.00 100 1027.2
20260506155003 57 189 0.0 0.0 0.00 0.18 0.00 100 1027.3
20260506154458 57 189 0.0 0.0 0.00 0.18 0.00 100 1027.2
20260506153959 57 189 0.0 0.0 0.00 0.18 0.00 100 1027.4
20260506153500 57 189 0.0 0.0 0.00 0.18 0.00 100 1027.5
20260506152956 57 189 0.0 0.0 0.00 0.18 0.00 100 1027.5
20260506152456 57 189 0.0 0.0 0.00 0.18 0.00 100 1027.6
20260506151956 57 189 0.0 0.0 0.00 0.18 0.00 100 1027.6
20260506151455 57 189 0.0 0.0 0.00 0.18 0.00 100 1027.8
20260506150952 57 189 0.0 0.0 0.00 0.18 0.00 100 1027.7
20260506150459 57 189 0.0 0.0 0.00 0.18 0.00 100 1027.7
20260506145958 57 189 0.0 0.0 0.00 0.18 0.00 100 1027.7
20260506145454 57 189 0.0 0.0 0.00 0.18 0.00 100 1027.8
20260506144950 57 189 0.0 0.0 0.00 0.18 0.00 100 1027.9
20260506144451 57 189 0.0 0.0 0.00 0.18 0.00 100 1028.0
20260506143949 57 189 0.0 0.0 0.00 0.18 0.00 100 1028.1
20260506143448 57 189 0.0 0.0 0.00 0.18 0.00 100 1028.0
20260506142945 57 189 0.0 0.0 0.00 0.18 0.00 100 1028.3
20260506142443 57 189 0.0 0.0 0.00 0.18 0.00 100 1028.2
20260506141938 57 189 0.0 0.0 0.00 0.19 0.00 100 1028.2
20260506141432 57 189 0.0 0.0 0.00 0.19 0.00 100 1028.3
20260506140925 57 189 0.0 0.0 0.00 0.19 0.00 100 1028.3
20260506140420 57 189 0.0 0.0 0.00 0.19 0.00 100 1028.4
20260506140331 57 189 0.0 0.0 0.00 0.19 0.00 100 1028.4
20260506135407 57 189 0.0 0.0 0.00 0.20 0.00 100 1028.5
20260506134904 57 189 0.0 0.0 0.00 0.20 0.00 100 1028.4
20260506134404 57 189 0.0 0.0 0.00 0.20 0.00 100 1028.3
20260506133904 57 189 0.0 0.0 0.00 0.20 0.00 100 1028.3
20260506133401 57 189 0.0 0.0 0.00 0.21 0.00 100 1028.4
20260506132900 57 189 0.0 0.0 0.00 0.21 0.00 100 1028.4
20260506132356 57 189 0.0 0.0 0.00 0.22 0.00 100 1028.4
20260506131901 57 189 0.0 0.0 0.00 0.23 0.00 100 1028.4
20260506131358 57 189 0.0 0.0 0.00 0.24 0.00 100 1028.4
20260506130855 56 189 0.0 0.0 0.00 0.24 0.00 100 1028.4
20260506130350 56 189 0.0 0.0 0.00 0.25 0.00 100 1028.4
20260506130316 56 189 0.0 0.0 0.00 0.25 0.00 100 1028.6
20260506125346 56 189 0.0 0.0 0.00 0.25 0.00 100 1028.5
20260506124843 56 189 0.0 0.0 0.00 0.25 0.00 100 1028.6
20260506124734 56 189 0.0 0.0 0.00 0.26 0.00 100 1028.6
20260506123840 56 189 0.0 0.0 0.00 0.27 0.00 100 1028.6
20260506123337 56 189 0.0 0.0 0.00 0.28 0.00 100 1028.5
20260506122834 56 189 0.0 0.0 0.00 0.28 0.00 100 1028.6
20260506122728 56 189 0.0 0.0 0.00 0.28 0.00 100 1028.7
20260506121833 56 189 0.0 0.0 0.00 0.28 0.00 100 1028.7
20260506121815 56 189 0.0 0.0 0.00 0.28 0.00 100 1028.7
20260506120827 56 189 0.0 0.0 0.00 0.28 0.00 100 1028.8
20260506120330 56 189 0.0 0.0 0.00 0.28 0.00 100 1028.8
20260506115830 56 189 0.0 0.0 0.00 0.28 0.28 100 1028.7
20260506115323 56 189 0.0 0.0 0.00 0.28 0.28 100 1028.9
20260506114817 56 189 0.0 0.0 0.00 0.28 0.28 100 1028.8
20260506114701 56 189 0.0 0.0 0.00 0.28 0.28 100 1028.8
20260506113810 55 189 0.0 0.0 0.00 0.28 0.28 100 1028.8
20260506113304 55 189 0.0 0.0 0.00 0.28 0.28 100 1028.9
20260506112804 55 189 0.0 0.0 0.00 0.28 0.28 100 1028.9
20260506112442 56 189 0.0 0.0 0.00 0.28 0.28 100 1028.9
20260506111301 56 189 0.0 0.0 0.00 0.28 0.28 100 1028.9
20260506110803 56 189 0.0 0.0 0.00 0.28 0.28 100 1028.9
20260506110302 55 189 0.0 0.0 0.00 0.28 0.28 100 1028.8
20260506105757 55 189 0.0 0.0 0.00 0.28 0.28 100 1029.0
20260506105256 55 189 0.0 0.0 0.00 0.28 0.28 100 1029.2
20260506104757 55 189 0.0 0.0 0.00 0.28 0.28 100 1029.0
20260506104302 55 189 0.0 0.0 0.00 0.28 0.28 100 1029.1
20260506103757 55 189 0.0 0.0 0.00 0.28 0.28 100 1029.2
20260506103255 55 189 0.0 0.0 0.00 0.28 0.28 100 1029.2
20260506102755 55 189 0.0 0.0 0.00 0.28 0.28 100 1029.2
20260506102650 55 189 0.0 0.0 0.00 0.28 0.28 100 1029.3
20260506101930 55 189 0.0 0.0 0.00 0.28 0.28 100 1029.3
20260506100747 54 189 0.0 0.0 0.00 0.28 0.28 99 1029.3
20260506100247 54 189 0.0 0.0 0.00 0.28 0.28 99 1029.2
20260506095744 55 189 0.0 0.0 0.00 0.28 0.28 99 1029.3
20260506095235 55 189 0.0 0.0 0.00 0.28 0.28 99 1029.2
20260506094728 55 189 0.0 0.0 0.00 0.28 0.28 99 1029.2
20260506094223 55 189 0.0 0.0 0.00 0.28 0.28 99 1029.2
20260506093716 55 189 0.0 0.0 0.00 0.28 0.28 99 1029.2
20260506093212 55 189 0.0 0.0 0.00 0.28 0.28 99 1029.2
20260506092712 55 189 0.0 0.0 0.00 0.28 0.28 99 1029.3
20260506092211 55 189 0.0 0.0 0.00 0.28 0.28 99 1029.3
20260506091717 55 189 0.0 0.0 0.00 0.28 0.28 99 1029.3
20260506091212 55 189 0.0 0.0 0.00 0.28 0.28 99 1029.2
20260506090713 56 189 0.0 0.0 0.00 0.28 0.28 99 1029.3
20260506090612 56 189 0.0 0.0 0.00 0.28 0.28 98 1029.3
20260506085713 56 189 0.0 0.0 0.00 0.28 0.28 98 1029.2
20260506085212 56 189 0.0 0.0 0.00 0.28 0.28 98 1029.3
20260506084707 57 189 0.0 0.0 0.00 0.28 0.28 99 1029.3
20260506084601 57 189 0.0 0.0 0.00 0.28 0.28 99 1029.3
20260506083708 57 189 0.0 0.0 0.00 0.28 0.28 99 1029.2
20260506083556 57 189 0.0 0.0 0.00 0.28 0.28 99 1029.3
20260506082709 58 189 0.0 0.0 0.00 0.28 0.28 99 1029.3
20260506082357 58 188 0.0 0.0 0.00 0.28 0.28 99 1029.2